Weather History for Avoca, PA

Change the Weather History Date:

Wednesday, December 4, 2013

  Actual Average Record
Temperature  
Mean Temperature 44 °F 35 °F  
Max Temperature 55 °F 41 °F 69 °F (1998)
Min Temperature 33 °F 28 °F 4 °F (1926)
Degree Days  
Heating Degree Days 21 30  
Month to date heating degree days 103 119  
Since 1 July heating degree days 1379 1432  
Cooling Degree Days 0 0  
Month to date cooling degree days 0 0  
Year to date cooling degree days 795 580  
Moisture  
Dew Point 36 °F    
Average Humidity 78    
Maximum Humidity 100    
Minimum Humidity 55    
Precipitation  
Precipitation 0.00 in 0.10 in 2.58 in (1950)
Month to date precipitation 0.01 0.40  
Year to date precipitation 24.24 35.98  
Sea Level Pressure  
Sea Level Pressure 30.05 in    
Wind  
Wind Speed 3 mph (SSE)    
Max Wind Speed 10 mph    
Max Gust Speed 18 mph    
Visibility 4 miles    
Events      
T = Trace of Precipitation, MM = Missing Value Source: NWS Daily Summary

Daily Weather History Graph

Daily Weather History Graph

Search for Another Location

Airport:

Trip Planner

Search our weather history database for the weather conditions in past years. The results will help you decide how hot, cold, wet, or windy it might be!

Date:

Astronomy

Dec. 04, 2013 Rise Set
Actual Time 7:12 AM EST 4:33 PM EST
Civil Twilight 6:41 AM EST 5:04 PM EST
Nautical Twilight 6:07 AM EST 5:39 PM EST
Astronomical Twilight 5:33 AM EST 6:12 PM EST
Moon 8:38 AM EST (12/4) 6:41 PM EST (12/4)
Length of Visible Light 10h 22m
Length of Day
9h 21m
Waxing Crescent, 4% of the Moon is Illuminated
Dec 4
Waxing Crescent
Dec 9
First Quarter
Dec 17
Full
Dec 25
Last Quarter
Jan 1
New

Hourly Weather History & Observations

Time (EST) Temp. Windchill Dew Point Humidity Pressure Visibility Wind Dir Wind Speed Gust Speed Precip Events Conditions
12:54 AM 34.0 °F 31.0 °F 32.0 °F 92% 30.02 in 2.5 mi SE 3.5 mph - N/A   Overcast
1:08 AM 33.8 °F 30.8 °F 33.8 °F 100% 30.01 in 1.8 mi ESE 3.5 mph - N/A   Overcast
1:27 AM 33.8 °F 30.8 °F 33.8 °F 100% 30.01 in 2.0 mi ESE 3.5 mph - N/A   Overcast
1:54 AM 34.0 °F - 33.1 °F 96% 30.03 in 2.5 mi Calm Calm - N/A   Overcast
2:20 AM 33.8 °F 30.8 °F 32.0 °F 93% 30.02 in 3.0 mi ESE 3.5 mph - N/A   Overcast
2:33 AM 33.8 °F - 32.0 °F 93% 30.02 in 3.0 mi Calm Calm - N/A   Overcast
2:54 AM 33.1 °F 30.0 °F 30.9 °F 92% 30.03 in 4.0 mi East 3.5 mph - N/A   Overcast
3:54 AM 33.1 °F - 30.9 °F 92% 30.04 in 5.0 mi Calm Calm - N/A   Overcast
4:54 AM 34.0 °F 31.0 °F 30.0 °F 85% 30.05 in 6.0 mi ESE 3.5 mph - N/A   Overcast
5:31 AM 33.8 °F 30.8 °F 30.2 °F 87% 30.03 in 5.0 mi East 3.5 mph - N/A   Overcast
5:54 AM 34.0 °F 29.8 °F 30.9 °F 89% 30.04 in 4.0 mi ENE 4.6 mph - N/A   Overcast
6:18 AM 33.8 °F 29.6 °F 32.0 °F 93% 30.04 in 3.0 mi ENE 4.6 mph - N/A   Scattered Clouds
6:54 AM 33.1 °F 28.7 °F 30.9 °F 92% 30.04 in 5.0 mi East 4.6 mph - N/A   Scattered Clouds
7:54 AM 34.0 °F - 32.0 °F 92% 30.04 in 2.0 mi Calm Calm - N/A   Clear
8:29 AM 33.8 °F 29.6 °F 30.2 °F 87% 30.05 in 3.0 mi SSW 4.6 mph - N/A   Clear
8:37 AM 35.6 °F 31.7 °F 32.0 °F 87% 30.06 in 2.5 mi SW 4.6 mph - N/A   Partly Cloudy
8:44 AM 35.6 °F 29.9 °F 33.8 °F 93% 30.06 in 1.0 mi WSW 6.9 mph - N/A   Mist
8:51 AM 35.6 °F 32.8 °F 33.8 °F 93% 30.07 in 0.8 mi SW 3.5 mph - N/A   Mostly Cloudy
8:54 AM 35.1 °F - 34.0 °F 96% 30.09 in 0.8 mi Calm Calm - N/A   Mostly Cloudy
9:01 AM 35.6 °F - 33.8 °F 93% 30.06 in 1.2 mi Calm Calm - N/A   Mostly Cloudy
9:10 AM 35.6 °F - 33.8 °F 93% 30.06 in 2.0 mi Calm Calm - N/A   Scattered Clouds
9:54 AM 39.9 °F - 35.1 °F 83% 30.09 in 2.5 mi Calm Calm - N/A   Haze
10:16 AM 42.8 °F - 35.6 °F 76% 30.08 in 3.0 mi Calm Calm - N/A   Haze
10:54 AM 43.0 °F 40.3 °F 35.1 °F 74% 30.09 in 4.0 mi SW 4.6 mph - N/A   Haze
11:07 AM 44.6 °F 42.2 °F 35.6 °F 71% 30.07 in 4.0 mi West 4.6 mph - N/A   Haze
11:54 AM 48.0 °F - 37.0 °F 66% 30.06 in 4.0 mi Calm Calm - N/A   Haze
12:09 PM 51.8 °F - 37.4 °F 58% 30.03 in 5.0 mi SW 3.5 mph - N/A   Haze
12:54 PM 52.0 °F - 37.9 °F 59% 30.04 in 4.0 mi NW 4.6 mph - N/A   Haze
1:54 PM 55.0 °F - 39.0 °F 55% 30.02 in 8.0 mi SW 5.8 mph - N/A   Partly Cloudy
2:54 PM 54.0 °F - 41.0 °F 62% 30.02 in 9.0 mi South 8.1 mph - N/A   Clear
3:54 PM 53.1 °F - 41.0 °F 64% 30.04 in 8.0 mi South 6.9 mph - N/A   Clear
4:54 PM 50.0 °F - 41.0 °F 71% 30.04 in 9.0 mi SSE 4.6 mph - N/A   Clear
5:54 PM 48.0 °F - 39.9 °F 74% 30.06 in 8.0 mi Variable 5.8 mph - N/A   Clear
6:54 PM 48.0 °F - 42.1 °F 80% 30.07 in 7.0 mi Variable 6.9 mph - N/A   Clear
7:50 PM 48.2 °F - 41.0 °F 76% 30.06 in 7.0 mi Calm Calm - N/A   Mostly Cloudy
7:54 PM 48.0 °F - 41.0 °F 77% 30.07 in 7.0 mi Calm Calm - N/A   Mostly Cloudy
8:54 PM 48.0 °F - 41.0 °F 77% 30.07 in 7.0 mi Calm Calm - N/A   Overcast
9:54 PM 46.9 °F - 41.0 °F 80% 30.07 in 6.0 mi Calm Calm - N/A   Haze
10:54 PM 48.9 °F - 42.1 °F 77% 30.06 in 5.0 mi South 3.5 mph - N/A   Haze
11:20 PM 48.2 °F - 41.0 °F 76% 30.07 in 5.0 mi NW 3.5 mph - N/A   Haze
11:54 PM 48.0 °F - 43.0 °F 83% 30.06 in 5.0 mi South 6.9 mph - N/A   Haze